This demonstration page uses our WeatherBlox Daily Observations layout. Learn more.

Left ArrowRight Arrow

Hourly Observations for August 10, 2015

Temp ( °F °C ) Dew Point ( °F °C ) Humidity (%) Winds ( mph kmh ) Pressure ( in mb ) Visibility ( mi km ) Precip ( " mm )
12:15 am 00:15 Clear 70 21 64 18 83 83 E 3 6 29.94 1014 10 16 0.00 0.00
12:35 am 00:35 Clear 70 21 64 18 83 83 Calm 29.94 1014 10 16 0.00 0.00
12:55 am 00:55 Clear 70 21 64 18 83 83 Calm 29.94 1014 10 16 0.00 0.00
1:15 am 01:15 Clear 70 21 64 18 83 83 N 6 9 29.94 1014 10 16 0.00 0.00
1:35 am 01:35 Clear 68 20 63 17 83 83 N 6 9 29.94 1014 10 16 0.00 0.00
1:55 am 01:55 Clear 70 21 64 18 83 83 NW 3 6 29.94 1014 10 16 0.00 0.00
2:15 am 02:15 Clear 70 21 64 18 83 83 NW 3 6 29.94 1014 10 16 0.00 0.00
2:35 am 02:35 Clear 70 21 64 18 83 83 WNW 5 7 29.94 1014 10 16 0.00 0.00
2:55 am 02:55 Clear 68 20 63 17 83 83 WNW 6 9 29.94 1014 10 16 0.00 0.00
3:15 am 03:15 Clear 68 20 64 18 88 88 WNW 5 7 29.94 1014 10 16 0.00 0.00
3:35 am 03:35 Clear 68 20 63 17 83 83 NNW 6 9 29.94 1014 10 16 0.00 0.00
3:55 am 03:55 Partly Cloudy 68 20 63 17 83 83 NW 6 9 29.94 1014 10 16 0.00 0.00
4:15 am 04:15 Mostly Cloudy 68 20 64 18 88 88 NW 7 11 29.94 1014 10 16 0.00 0.00
4:35 am 04:35 Cloudy with Nearby Thunderstorms 70 21 61 16 73 73 NNW 33 54 29.94 1014 10 16 0.00 0.00
4:55 am 04:55 Mostly Cloudy with Nearby Thunderstorms 72 22 59 15 65 65 NNE 10 17 29.94 1014 10 16 0.00 0.00
5:15 am 05:15 Partly Cloudy 72 22 57 14 61 61 NNW 5 7 29.94 1014 10 16 0.00 0.00
5:35 am 05:35 Mostly Clear 72 22 57 14 61 61 N 7 11 29.94 1014 10 16 0.00 0.00
5:55 am 05:55 Clear 68 20 59 15 73 73 NW 6 9 29.94 1014 10 16 0.00 0.00
6:15 am 06:15 Clear 66 19 61 16 83 83 NNW 6 9 29.97 1015 10 16 0.00 0.00
6:35 am 06:35 Clear 66 19 61 16 83 83 N 8 13 30.00 1016 10 16 0.00 0.00
6:55 am 06:55 Sunny 66 19 61 16 83 83 N 9 15 30.00 1016 10 16 0.00 0.00
7:15 am 07:15 Mostly Sunny 66 19 61 16 83 83 NNW 5 7 30.03 1017 10 16 0.00 0.00
7:35 am 07:35 Mostly Cloudy 66 19 63 17 88 88 NNE 7 11 30.03 1017 10 16 0.00 0.00
7:55 am 07:55 Cloudy 66 19 64 18 94 94 NNE 13 20 30.03 1017 9 14 0.00 0.00
8:15 am 08:15 Cloudy 66 19 64 18 94 94 ENE 9 15 30.06 1018 10 16 0.00 0.00
8:35 am 08:35 Cloudy 66 19 63 17 88 88 N 13 20 30.06 1018 10 16 0.00 0.00
8:55 am 08:55 Cloudy 68 20 63 17 83 83 NNE 13 20 30.06 1018 10 16 0.00 0.00
9:15 am 09:15 Cloudy 68 20 63 17 83 83 NNE 13 20 30.06 1018 10 16 0.00 0.00
9:35 am 09:35 Cloudy 70 21 63 17 78 78 NNE 10 17 30.06 1018 10 16 0.00 0.00
9:55 am 09:55 Cloudy 70 21 63 17 78 78 NNE 14 22 30.06 1018 10 16 0.00 0.00
10:15 am 10:15 Cloudy 70 21 63 17 78 78 NNE 13 20 30.06 1018 10 16 0.00 0.00
10:35 am 10:35 Cloudy 70 21 63 17 78 78 N 9 15 30.12 1020 10 16 0.00 0.00
10:55 am 10:55 Cloudy 70 21 63 17 78 78 NNE 7 11 30.12 1020 10 16 0.00 0.00
11:15 am 11:15 Cloudy 72 22 64 18 78 78 NE 10 17 30.09 1019 10 16 0.00 0.00
11:35 am 11:35 Cloudy 72 22 63 17 73 73 NNE 8 13 30.09 1019 10 16 0.00 0.00
11:55 am 11:55 Cloudy 72 22 63 17 73 73 ENE 8 13 30.09 1019 10 16 0.00 0.00
12:15 pm 12:15 Cloudy 73 23 64 18 74 74 N 10 17 30.09 1019 10 16 0.00 0.00
12:35 pm 12:35 Partly Cloudy 75 24 63 17 65 65 NNE 10 17 30.09 1019 10 16 0.00 0.00
12:55 pm 12:55 Mostly Sunny 75 24 63 17 65 65 N 12 19 30.09 1019 10 16 0.00 0.00
1:15 pm 13:15 Sunny 75 24 63 17 65 65 NNE 9 15 30.09 1019 10 16 0.00 0.00
1:35 pm 13:35 Mostly Cloudy 77 25 64 18 65 65 NNE 7 11 30.09 1019 10 16 0.00 0.00
1:55 pm 13:55 Mostly Cloudy 77 25 64 18 65 65 NE 10 17 30.09 1019 10 16 0.00 0.00
2:15 pm 14:15 Partly Cloudy 79 26 64 18 61 61 N 10 17 30.03 1017 10 16 0.00 0.00
2:35 pm 14:35 Partly Cloudy 79 26 63 17 58 58 N 8 13 30.03 1017 10 16 0.00 0.00
2:55 pm 14:55 Partly Cloudy 79 26 64 18 61 61 NE 6 9 30.03 1017 10 16 0.00 0.00
3:15 pm 15:15 Mostly Cloudy 81 27 63 17 54 54 NNE 9 15 30.03 1017 10 16 0.00 0.00
3:35 pm 15:35 Mostly Cloudy 81 27 63 17 54 54 ENE 9 15 30.03 1017 10 16 0.00 0.00
3:55 pm 15:55 Partly Cloudy 79 26 63 17 58 58 NE 7 11 30.03 1017 5 8 0.00 0.00
4:15 pm 16:15 Partly Cloudy 81 27 64 18 58 58 NNE 8 13 30.00 1016 10 16 0.00 0.00
4:35 pm 16:35 Mostly Sunny 81 27 64 18 58 58 ENE 8 13 30.00 1016 10 16 0.00 0.00
4:55 pm 16:55 Mostly Sunny 81 27 63 17 54 54 NE 6 9 30.00 1016 10 16 0.00 0.00
5:15 pm 17:15 Sunny 81 27 63 17 54 54 ENE 6 9 30.00 1016 10 16 0.00 0.00
5:35 pm 17:35 Mostly Sunny 81 27 64 18 58 58 E 10 17 30.00 1016 10 16 0.00 0.00
5:55 pm 17:55 Partly Cloudy 79 26 63 17 58 58 ENE 6 9 30.00 1016 10 16 0.00 0.00
6:15 pm 18:15 Partly Cloudy 79 26 64 18 61 61 E 10 17 30.00 1016 10 16 0.00 0.00
6:35 pm 18:35 Partly Cloudy 79 26 64 18 61 61 ENE 7 11 30.00 1016 10 16 0.00 0.00
6:55 pm 18:55 Partly Cloudy 79 26 63 17 58 58 E 9 15 30.00 1016 10 16 0.00 0.00
7:15 pm 19:15 Partly Cloudy 79 26 63 17 58 58 E 6 9 30.00 1016 10 16 0.00 0.00
7:35 pm 19:35 Sunny 77 25 64 18 65 65 E 6 9 30.00 1016 10 16 0.00 0.00
7:55 pm 19:55 Sunny 75 24 64 18 69 69 ENE 7 11 30.03 1017 10 16 0.00 0.00
8:15 pm 20:15 Sunny 73 23 64 18 74 74 E 6 9 30.06 1018 10 16 0.00 0.00
8:35 pm 20:35 Sunny 72 22 63 17 73 73 ENE 7 11 30.06 1018 10 16 0.00 0.00
8:55 pm 20:55 Clear 70 21 63 17 78 78 E 7 11 30.06 1018 10 16 0.00 0.00
9:15 pm 21:15 Clear 68 20 63 17 83 83 E 7 11 30.09 1019 10 16 0.00 0.00
9:35 pm 21:35 Clear 68 20 63 17 83 83 E 7 11 30.09 1019 10 16 0.00 0.00
9:55 pm 21:55 Clear 66 19 63 17 88 88 E 6 9 30.12 1020 10 16 0.00 0.00
10:15 pm 22:15 Clear 66 19 61 16 83 83 E 5 7 30.12 1020 10 16 0.00 0.00
10:35 pm 22:35 Clear 66 19 61 16 83 83 E 6 9 30.12 1020 10 16 0.00 0.00
10:55 pm 22:55 Clear 66 19 61 16 83 83 E 5 7 30.12 1020 10 16 0.00 0.00
11:15 pm 23:15 Clear 66 19 61 16 83 83 E 5 7 30.12 1020 10 16 0.00 0.00
11:35 pm 23:35 Clear 66 19 61 16 83 83 ESE 5 7 30.15 1021 10 16 0.00 0.00
11:55 pm 23:55 Clear 66 19 61 16 83 83 Calm 30.15 1021 10 16 0.00 0.00

Powered by AerisWeather